This is the latest recevied weather packets stored in our database for station/object DR0T. If no packets are shown the sender has not sent any weather packets the latest 1 day(s).
| Time | Temp. | Humidity | Pressure | Rain* | Wind** | Luminosity | Snow |
|---|---|---|---|---|---|---|---|
| 1778089655 | 11.11° C | 92% | 1007.7 hPa | 0 mm | - | - | - |
| 1778088747 | 11.11° C | 93% | 1007.4 hPa | 0 mm | - | - | - |
| 1778088450 | 11.11° C | 93% | 1007.3 hPa | 0 mm | - | - | - |
| 1778087843 | 11.67° C | 91% | 1007.1 hPa | 0 mm | - | - | - |
| 1778086646 | 11.67° C | 89% | 1007.1 hPa | 0 mm | - | - | - |
| 1778086036 | 12.78° C | 86% | 1007 hPa | 0 mm | - | - | - |
| 1778085452 | 12.78° C | 83% | 1007 hPa | 0 mm | - | - | - |
| 1778085150 | 13.89° C | 79% | 1006.9 hPa | 0 mm | - | - | - |
| 1778083949 | 14.44° C | 72% | 1007.1 hPa | 0 mm | - | - | - |
| 1778083343 | 13.89° C | 73% | 1007.1 hPa | 0 mm | - | - | - |
| 1778082741 | 13.89° C | 74% | 1007.2 hPa | 0 mm | - | - | - |
| 1778082440 | 13.89° C | 74% | 1007.3 hPa | 0 mm | - | - | - |
| 1778080052 | 13.89° C | 73% | 1007.1 hPa | 0 mm | - | - | - |
| 1778079749 | 13.89° C | 72% | 1007 hPa | 0 mm | - | - | - |
| 1778079448 | 13.89° C | 72% | 1007 hPa | 0 mm | - | - | - |
| 1778079148 | 13.89° C | 72% | 1007 hPa | 0 mm | - | - | - |
| 1778078544 | 14.44° C | 72% | 1006.8 hPa | 0 mm | - | - | - |
| 1778077640 | 14.44° C | 71% | 1006.8 hPa | 0 mm | - | - | - |
| 1778077040 | 14.44° C | 71% | 1006.8 hPa | 0 mm | - | - | - |
| 1778075553 | 14.44° C | 70% | 1007 hPa | 0 mm | - | - | - |
| 1778075250 | 13.89° C | 69% | 1006.9 hPa | 0 mm | - | - | - |
| 1778074346 | 14.44° C | 70% | 1006.9 hPa | 0 mm | - | - | - |
| 1778074045 | 14.44° C | 70% | 1006.9 hPa | 0 mm | - | - | - |
| 1778072538 | 14.44° C | 70% | 1006.9 hPa | 0 mm | - | - | - |
| 1778071936 | 15.56° C | 70% | 1006.9 hPa | 0 mm | - | - | - |
* Rain latest hour (hover to see other rain measurements)
** Current wind speed in m/s (hover to see current wind gust speed)